www.pogodaiklimat.ru

Погода и климат >> Архив погоды >> Аргентина >> Чамикаль


ПОГОДА в Чамикале

  • Прогноз погоды в Чамикале
  • Монитор погоды в Чамикале

АРХИВ ПОГОДЫ в Чамикале

Время (UTC), дата Ветер
(напр.,м/с)
 
Видим.   Явления Облачность Т
(С)
Тd
(С)
f
(%)
Тe
(С)
Тes
(С)
Комфортность P
(гПа)
Po
(гПа)
Тmin
(С)
Tmax
(С)
R
(мм)
R24
(мм)
S
(см)
15 18.08 штиль 0 20 км 3/0
[Ac und]
+18.0 +0.4 30 +18 +29 1023.6 969.7
18 18.08 В 5 20 км 5/0
[Ac und]
+21.4 +1.5 27 +21 +25 комфорт 1021.0 967.4
21 18.08 СВ 3 20 км 5/0
[Ac und]
+20.0 -0.1 26 +20 +21 1020.5 966.4
00 19.08 штиль 0 20 км 8/0
[Ac As]
+16.7 +1.4 36 +17 +17 1022.6 968.2 +9.9 +22.0
03 19.08 штиль 0 20 км 4/0
[Ac As]
+11.4 +4.6 63 +11 +11 1026.3 972.1
06 19.08 штиль 0 20 км 6/6 1200 м
[Sc]
+9.6 +4.4 70 +9 +9 1024.4 960.4
09 19.08 В 3 20 км 9/9 1050 м
[]
+9.0 +3.9 70 +7 +7 1024.7 970.5
12 19.08 ЮВ 3 20 км 9/9 1050 м
[Sc]
+9.2 +4.4 72 +7 +7 1026.1 971.4 +8.2 +16.7
15 19.08 В 2 20 км 9/9 900 м
[Sc]
+11.0 +4.6 65 +10 +11 1026.3 971.4
18 19.08 В 3 20 км 10/10 900 м
[Sc]
+12.6 +4.6 58 +12 +12 1023.2 968.4
21 19.08 В 1 20 км 10/10 1050 м
[Sc]
+13.2 +2.1 47 +14 +14 1022.2 967.4
00 20.08 Ю 1 20 км 10/10 1050 м
[Sc]
+12.4 +4.8 60 +13 +13 1024.5 969.6 +8.7 +13.3
03 20.08 В 3 20 км 10/10 1050 м
[Sc]
+11.4 +2.5 54 +10 +10 1026.1 971.2
06 20.08 штиль 0 20 км 10/10 1050 м
[Sc]
+10.5 +1.5 54 +10 +10 1026.1 971.3
09 20.08 ЮВ 1 20 км 10/10 1050 м
[Sc]
+9.7 +1.0 55 +10 +10 1025.7 970.8
12 20.08 ЮВ 3 20 км 10/10 1200 м
[Sc]
+9.8 +0.9 54 +8 +8 1027.7 972.6 +8.9 +12.6
15 20.08 В 4 20 км 9/9 1200 м
[Sc]
+11.9 +0.5 45 +10 +11 1028.0 973.0
18 20.08 В 4 15 км мгла 3/0
[Ci fib]
+16.0 +1.6 38 +15 +22 1024.4 970.0
21 20.08 В 5 20 км ясно +15.6 +0.2 35 +15 +15 1023.9 969.4
00 21.08 Ю 3 20 км ясно +10.3 0.0 49 +9 +9 1025.8 970.8 +9.8 +17.0
03 21.08 ЮВ 2 20 км ясно +9.1 -0.1 53 +8 +8 1026.4 971.3
06 21.08 ЮВ 2 20 км ясно +7.0 +0.4 63 +6 +6 1025.4 970.6
09 21.08 ЮВ 2 20 км ясно +6.4 -0.1 63 +5 +5 1024.0 969.2
12 21.08 штиль 0 20 км ясно +9.0 +1.5 59 +9 +10 1024.1 969.0 +5.9 +10.4
15 21.08 СВ 2 20 км ясно +15.4 +1.8 40 +15 +26 опасность
простуды
1022.9 968.4
18 21.08 СВ 2 20 км ясно +18.2 +2.0 34 +19 +29 1018.9 964.6
21 21.08 СВ 2 20 км ясно +18.2 +1.4 32 +19 +20 1017.0 962.8
03 22.08 ЮВ 3 20 км ясно +12.2 +1.9 49 +11 +11 1023.0 968.8
06 22.08 штиль 0 20 км ясно +10.3 +2.7 59 +10 +10 1024.0 969.8
09 22.08 ЮЗ 2 20 км ясно +9.5 +1.9 59 +8 +8 1026.0 971.6
12 22.08 З 2 20 км мгла ясно +13.0 +3.0 51 +13 +14 1029.5 974.8 +6.3 +14.2
15 22.08 З 2 15 км мгла ясно +20.6 +3.3 32 +22 +33 комфорт 1029.2 975.0
18 22.08 В 1 15 км мгла ясно +23.0 +3.1 27 +23 +35 комфорт 1026.0 972.1
21 22.08 штиль 0 15 км мгла ясно +23.4 +3.0 26 +23 +24 комфорт 1024.2 970.4
00 23.08 штиль 0 15 км мгла ясно +15.4 +4.2 47 +15 +15 1025.8 971.4 +12.3 +24.6
03 23.08 штиль 0 20 км ясно +12.0 +2.2 51 +12 +12 1025.0 971.0
06 23.08 ЮВ 1 20 км ясно +11.8 +3.0 55 +12 +12 1023.0 969.4
09 23.08 штиль 0 20 км ясно +10.6 +2.5 57 +10 +10 1021.8 968.2
12 23.08 Ю 3 15 км мгла 3/0
[Cs]
+12.4 +3.3 54 +11 +13 1022.7 968.5 +9.5 +15.5
15 23.08 ЮВ 2 15 км мгла 6/0
[Cs]
+19.2 +4.3 37 +20 +30 1021.1 967.3
18 23.08 В 6 15 км мгла 6/0
[Cs]
+23.6 +3.9 28 +23 +27 комфорт 1016.6 963.4
21 23.08 В 9 15 км мгла 6/0
[Cs]
+21.6 +3.5 30 +22 +22 комфорт 1014.6 961.2
00 24.08 ЮВ 2 15 км мгла ясно +17.4 +2.6 37 +18 +18 1015.8 962.1 +11.7 +24.0
03 24.08 ЮВ 4 20 км ясно +15.7 +3.2 43 +15 +15 1016.7 963.4
06 24.08 ЮВ 1 20 км ясно +13.8 +3.0 48 +14 +14 1016.2 963.2
09 24.08 ЮВ 1 20 км ясно +10.9 +2.3 55 +11 +11 1015.4 962.0
12 24.08 Ю 3 15 км мгла 8/0
[Ac trans Cs]
+11.7 +3.1 56 +10 +11 1017.6 963.7 +9.6 +17.4
15 24.08 ЮВ 5 15 км мгла 4/0
[Cs]
+18.4 +3.3 37 +18 +23 1017.3 964.0
18 24.08 СВ 3 15 км мгла 6/0
[Cs]
+22.4 +4.5 31 +23 +30 комфорт 1013.9 960.9
21 24.08 В 4 15 км мгла 6/0
[As trans Cs]
+22.8 +4.0 29 +23 +23 комфорт 1013.3 960.1
00 25.08 Ю 3 20 км 6/0
[As trans Cs]
+17.6 +4.6 42 +18 +18 1015.7 962.0 +11.7 +23.6
03 25.08 ЮВ 1 20 км ясно +16.4 +5.6 49 +17 +17 1016.6 963.3
06 25.08 Ю 2 20 км ясно +15.0 +5.7 54 +15 +15 1014.3 961.3
09 25.08 Ю 3 20 км 10/0
[Cs]
+16.1 +6.4 53 +16 +16 1013.5 960.8
12 25.08 штиль 0 20 км 8/0
[Ac und Cs]
+14.8 +7.4 61 +15 +16 1014.0 960.6 +14.1 +17.8

 

Местоположение метеостанции Чамикаль (Аргентина): широта -30.36 долгота -66.28 высота над уровнем моря 461 м.

В архиве по умолчанию представлена погода в Чамикале за последнюю неделю. Архивные данные за месяц целиком и за предыдущие месяцы, начиная с января 2011 года, Вы можете получить, выбрав интересующий диапазон дат из раскрывающегося списка и нажав кнопку "Ввод!".


*Определитесь, кто Вы:
робот инопланетянин человек

Внимание! Время в таблицах - всемирное. Для получения местного времени необходимо прибавить поправку, которая равна -3 ч.

Смотрите также архив погоды в соседних городах и на ближайших метеорологических станциях:

Погода в Ла-Риохе (Аргентина) (120 км)
Погода в Сан-Фернандо-дель-Валье-де-Катамарке (Аргентина) (202 км)
Погода в Вилла Долорес (Аргентина) (208 км)
Погода в Кордове (Аргентина) (224 км)
Погода в Сан-Хуане (Аргентина) (234 км)
Погода в Вилла де Мария дель Рио Секо (Аргентина) (255 км)
Погода в Пиларе (Аргентина) (271 км)
Погода в Сан-Луисе (Аргентина) (323 км)
Погода в Сантьяго-дель-Эстеро (Аргентина) (347 км)
Погода в Рио-Куарто (Аргентина) (358 км)

Пояснения к столбцам:

Ветер - указаны скорость ветра в м/с - средняя за 10 мин, порывы в срок и между сроками (в фигурных скобках) и направление, откуда дует ветер: С - северный, СВ - северо-восточный, В - восточный, ЮВ - юго-восточный, Ю - южный, ЮЗ - юго-западный, З - западный, СЗ - северо-западный.
Видимость - горизонтальная дальность видимости в метрах или километрах. При видимости от 1 до 10 км при отсутствии осадков обычно наблюдается дымка, при ухудшении видимости до 1 км и менее - туман. В сухую погоду видимость может ухудшаться дымом, пылью или мглою.
Явления - указаны атмосферные явления, наблюдавшиеся в срок или в последний час перед сроком; фигурными скобками обозначены явления, наблюдавшиеся между сроками (за 1-3 часа до срока); квадратными скобками обозначены град или гололедные отложения с указанием их диаметра в мм.
Облачность - указаны через наклонную черту общая и нижняя облачность в баллах и высота нижней границы облаков в метрах; квадратными скобками обозначены формы облаков: Ci - перистые, Cs - перисто-слоистые, Cc - перисто-кучевые, Ac - высококучевые, As - высокослоистые, Sc - слоисто-кучевые, Ns - слоисто-дождевые, Cu - кучевые, Cb - кучево-дождевые. Подробнее классификацию облаков см. в Атласе облаков (PDF).
T - Температура воздуха - температура, измеренная на высоте 2 м над землей.
Td - Температура точки росы - температура, при понижении до которой содержащийся в воздухе водяной пар достигнет насыщения.
f - Относительная влажность воздуха - влажноcть воздуха, измеренная на высоте 2 м над землей.
Te - Эффективная температура - температура, которую ощущает одетый по сезону человек в тени. Характеристика душности погоды. При расчете учитывается влияние влажности воздуха и скорости ветра на теплоощущения человека.
Tes - Эффективная температура на солнце - температура, которую ощущает человек, с поправкой на солнечный нагрев. Характеристика знойности погоды. Зависит от высоты солнца над горизонтом, облачности и скорости ветра. Ночью, в пасмурную погоду, а также при ветре 12 м/с и более поправка равна нулю.
P - Атмосферное давление - приведенное к уровню моря атмосферное давление.
Po - Атмосферное давление - измеренное на уровне метеостанции атмосферное давление.
Tmin - Минимальная температура - минимум температуры воздуха на высоте 2 м над землей.
Tmax - Максимальная температура - максимум температуры воздуха на высоте 2 м над землей.
R - Количество осадков - Количество выпавших осадков за период времени, мм. При наведении курсора мыши на число - период времени, за который выпало указанное количество осадков.
R24 - Количество осадков - Количество выпавших осадков за 24 часа, мм.
S - Снежный покров - Высота снежного покрова, см. При наведении курсора мыши на число - состояние снежного покрова и степень покрытия местности в баллах.